Theta_e
332 331 332 330 330 330 325 317 302 306 305 300 298 299 298 305 302 300 301 302 300 305 305 305 304 305 306 304 306 307 303 305 308 302 303 309 311 309 310 311 311 313 314 317 320 325 331 330 331 333 334 335 336 336 336 337 337 338 338 338 338 339 340 341 342 343 345 345 346 346 347 347 347 347 347 347 346 347 346 346 346 346 346 347 347 349 349 349 348 348 348 349 349 349 348 348 350
330 332 330 331 329 326 316 313 306 302 302 298 299 300 301 303 302 300 301 302 304 305 306 307 306 306 306 307 308 308 306 307 307 307 308 310 308 308 309 309 310 310 314 317 320 324 328 330 329 331 333 333 334 334 334 335 335 334 334 335 335 336 337 339 339 340 342 342 343 345 345 344 345 346 345 346 346 346 345 346 345 346 346 346 347 348 348 347 348 349 349 348 349 348 347 347 348
329 329 328 328 325 322 319 312 302 301 299 296 299 300 301 300 300 302 303 304 305 306 307 306 306 305 304 304 303 303 303 306 307 308 308 310 306 305 308 309 309 310 313 316 318 323 327 327 328 329 331 331 331 332 333 333 332 332 332 332 333 333 334 335 336 337 338 339 340 341 342 342 341 341 342 343 344 344 344 344 343 344 345 346 347 346 347 347 347 347 347 348 348 347 346 347 347
330 330 328 326 318 319 312 308 305 302 299 300 298 301 300 302 302 304 304 306 306 305 305 303 304 303 303 302 304 304 305 306 308 307 306 307 308 306 307 307 307 309 312 315 318 322 325 325 326 327 329 329 329 329 330 330 330 329 329 330 330 331 331 332 333 333 334 334 335 335 335 336 337 338 337 338 340 339 339 342 341 342 342 345 346 347 347 346 347 346 346 347 347 346 345 346 346
329 325 329 323 320 311 311 307 303 302 297 300 298 302 302 303 303 303 304 306 305 304 303 303 303 303 304 303 304 304 306 307 307 308 308 310 308 307 306 307 306 308 310 312 316 321 323 323 324 326 327 328 328 328 328 328 328 327 327 327 328 328 329 330 330 330 330 330 331 331 332 332 333 332 332 332 333 334 335 336 337 338 339 341 343 345 346 346 347 347 346 347 346 345 345 345 345
325 322 324 325 315 310 307 301 301 300 303 303 300 301 303 304 303 304 303 304 304 302 302 302 303 302 302 304 303 304 307 305 309 308 309 307 308 306 305 306 304 306 308 311 315 319 321 322 323 324 325 326 326 326 326 326 326 325 325 326 326 326 327 327 327 327 327 327 327 328 328 328 329 329 328 328 328 328 330 331 332 332 334 335 337 340 342 343 345 345 346 345 345 344 342 343 344
321 319 316 314 310 311 304 301 301 301 302 301 302 302 303 303 304 304 302 301 303 302 303 302 302 303 302 303 303 305 306 306 307 308 309 309 307 305 305 302 304 304 306 309 312 317 318 320 322 323 323 324 324 324 324 324 324 324 323 324 324 324 324 324 324 324 324 324 324 325 325 325 326 326 325 325 325 325 326 328 329 329 330 330 332 335 338 340 341 342 342 342 342 341 340 341 342
320 317 315 309 306 305 301 302 302 302 301 300 301 302 304 304 304 304 302 302 301 300 302 302 303 302 302 303 303 305 306 307 310 309 308 305 306 305 304 302 302 302 304 307 310 314 315 317 319 320 322 322 322 322 323 323 323 322 322 322 322 322 322 322 322 322 321 322 322 322 322 322 323 323 322 322 322 322 323 325 327 327 327 328 330 332 333 334 335 336 337 337 338 338 338 339 340
317 315 312 309 303 304 301 300 302 300 300 299 301 301 307 305 305 304 302 304 302 303 302 302 303 299 302 301 303 304 306 308 308 307 305 305 304 303 303 302 301 303 303 304 307 311 314 313 316 318 318 320 321 321 322 322 322 321 321 320 320 319 320 320 320 319 319 319 319 320 319 320 320 321 320 320 319 319 321 323 324 324 325 325 327 328 328 328 329 330 331 332 332 332 336 336 338
314 313 307 307 307 299 300 300 298 301 301 302 301 301 303 304 304 305 304 302 303 302 303 304 302 301 302 302 302 303 306 307 306 304 304 304 303 302 302 302 303 303 302 302 304 307 309 309 312 314 316 317 318 318 319 319 319 319 318 318 318 317 317 317 317 317 317 316 316 316 316 317 317 317 318 317 317 318 318 320 321 321 322 322 323 325 325 325 326 327 328 329 329 330 330 333 335
308 311 311 305 301 299 299 300 301 300 300 301 301 302 304 303 304 303 304 304 304 303 300 302 299 300 301 302 304 305 307 305 303 301 303 303 303 302 300 302 303 303 302 304 303 303 305 306 306 309 312 313 314 315 315 316 316 316 316 315 316 315 315 315 315 315 315 314 313 314 314 314 314 315 315 315 314 315 315 317 319 319 319 319 320 322 322 322 323 324 325 325 325 325 325 326 327
307 308 308 302 301 300 301 300 301 302 300 300 301 302 303 303 303 301 302 301 301 302 301 301 302 304 300 301 304 303 304 303 303 303 303 302 301 301 301 300 302 302 303 302 302 303 303 305 305 304 306 309 310 311 312 313 313 313 313 313 313 313 313 312 312 312 312 312 311 311 311 311 311 312 313 313 312 312 314 314 316 317 317 317 317 319 319 319 320 321 322 322 322 322 322 323 322
309 309 306 302 301 301 301 298 301 300 301 300 301 301 303 302 301 303 303 303 303 301 302 303 303 304 300 301 303 302 301 302 303 303 302 301 301 301 302 300 301 302 301 302 302 302 303 302 302 302 303 303 306 307 308 309 310 311 311 311 311 311 310 310 310 310 310 310 309 308 308 307 308 309 310 311 310 309 311 311 313 314 315 314 315 316 316 316 317 318 319 319 320 320 320 319 318
308 311 308 302 298 301 299 301 299 299 300 302 302 300 302 301 303 303 304 301 302 302 302 305 303 303 302 301 300 301 301 303 302 303 301 301 301 301 301 300 302 300 302 301 300 301 301 301 302 303 303 303 304 305 304 306 307 308 308 308 308 308 308 307 307 306 307 306 305 305 304 304 304 306 306 307 308 307 308 308 310 312 313 312 313 314 314 314 314 315 316 316 317 317 317 316 316
310 307 307 304 301 299 301 298 300 299 301 302 300 299 299 302 299 301 302 301 303 303 301 304 305 301 301 300 302 301 303 303 302 302 303 302 301 300 302 301 301 302 300 299 301 300 300 301 300 302 302 302 303 303 304 302 303 304 305 306 305 305 305 304 304 303 303 303 303 302 302 302 302 303 303 304 305 305 304 304 306 309 310 311 311 311 311 312 312 312 313 314 314 314 314 313 314
312 309 306 302 299 299 301 299 297 298 301 302 299 301 300 300 299 300 302 301 303 302 302 301 303 302 302 303 301 304 304 302 302 302 301 300 300 301 300 300 299 299 301 301 299 301 301 300 301 301 301 301 302 302 303 302 300 301 302 302 303 302 302 302 302 301 300 300 300 300 300 302 302 302 301 302 302 302 301 302 304 307 308 308 308 309 309 310 310 311 311 312 312 311 311 311 311
310 312 301 301 297 297 301 299 299 298 302 301 297 299 299 299 299 299 298 300 300 300 300 302 302 300 300 301 300 303 304 302 302 300 300 298 298 297 298 298 299 298 299 300 300 299 301 300 300 300 300 300 301 301 301 302 300 300 300 300 300 300 300 300 299 299 300 300 300 300 303 301 302 302 302 301 302 301 300 300 301 304 305 305 306 306 307 308 308 309 309 310 310 310 308 308 308
311 304 302 299 301 299 303 300 302 302 302 301 298 300 301 300 298 299 299 299 300 299 299 301 300 299 300 301 300 304 303 301 300 298 297 297 297 296 296 297 298 297 298 298 299 299 299 300 300 300 300 300 300 301 301 302 301 300 301 301 301 300 299 299 300 300 300 301 300 301 301 300 301 301 300 300 301 300 300 299 299 301 303 303 303 304 305 306 306 307 307 308 308 307 306 307 308
305 303 300 299 302 303 303 303 303 301 301 301 301 300 301 302 301 299 299 300 298 298 299 300 299 301 300 298 299 302 301 299 298 297 296 296 296 295 296 297 297 297 298 298 298 298 300 299 299 298 299 300 300 300 301 301 300 301 301 301 301 299 299 300 300 300 300 300 300 301 300 300 301 301 299 299 299 298 299 298 298 299 300 301 301 302 303 304 304 305 305 305 305 304 305 306 306
304 303 300 301 304 303 301 301 302 302 301 300 299 299 298 300 301 300 299 301 298 299 300 299 299 300 301 299 299 301 300 298 298 297 296 296 296 296 296 296 296 297 298 298 298 299 299 299 300 299 299 300 300 300 301 300 300 300 301 301 301 300 300 300 300 300 300 300 300 300 299 300 301 300 300 298 301 300 300 299 298 298 299 300 300 301 301 302 303 303 303 303 303 304 304 304 304
304 300 300 302 301 301 303 301 302 300 300 300 300 298 297 299 300 300 300 299 298 300 303 303 301 302 303 299 299 300 300 298 298 297 297 297 297 297 297 297 297 297 298 298 298 297 298 298 298 299 299 300 300 299 300 299 300 300 300 299 300 299 300 299 299 300 299 300 300 299 300 300 300 300 300 299 299 299 300 300 300 300 300 301 300 301 301 301 301 301 301 301 302 302 302 302 303
303 301 301 300 299 300 302 301 299 299 297 299 298 297 299 300 298 299 300 299 300 303 304 305 306 306 303 298 299 300 299 298 297 296 297 297 296 296 296 297 298 298 298 296 297 297 298 298 299 298 298 299 299 299 299 298 300 299 300 299 299 299 300 299 299 299 298 299 299 299 299 299 299 298 299 298 298 298 298 298 298 299 299 299 299 299 299 299 299 299 300 300 300 301 301 302 303
300 301 299 299 301 300 300 299 297 297 298 298 297 300 299 298 300 300 300 300 303 301 302 305 305 306 304 301 300 299 299 298 297 297 297 297 297 297 296 297 296 296 297 297 297 296 297 297 298 299 298 298 298 299 299 299 299 299 299 298 299 298 298 298 297 297 298 298 298 298 297 297 297 297 297 297 296 297 297 297 297 297 297 297 297 297 297 297 297 297 298 298 299 300 300 301 301
300 301 300 300 299 299 299 299 295 297 298 299 299 298 299 299 297 300 298 301 305 301 300 299 301 303 301 299 299 299 299 299 298 298 298 298 298 297 297 296 296 297 297 297 296 296 297 297 297 298 297 298 298 298 298 298 298 298 298 297 298 296 297 297 297 296 297 296 296 296 296 296 296 295 296 296 295 296 296 296 297 296 296 296 296 296 295 295 295 296 297 297 297 298 299 300 300
300 299 300 299 297 299 299 298 296 296 297 295 296 297 299 300 299 295 298 302 303 303 299 298 299 300 299 300 299 300 299 299 299 298 299 298 299 299 299 297 297 298 297 296 297 296 297 297 296 296 296 296 297 297 297 297 297 298 298 297 296 296 297 296 296 297 296 296 296 296 295 295 295 295 295 295 295 295 296 296 295 295 295 295 295 295 295 294 294 294 295 295 296 297 297 298 299
301 301 300 299 299 300 298 297 297 296 298 296 296 297 299 296 297 296 299 302 303 304 300 299 299 298 298 299 299 299 299 299 299 298 297 299 299 298 298 297 297 296 297 297 297 297 297 297 296 295 296 297 297 297 297 297 297 297 297 296 296 296 296 295 296 295 295 295 295 295 295 294 294 293 293 294 294 294 295 295 295 294 294 294 294 294 294 293 293 293 294 294 294 295 295 297 297
301 300 300 300 300 297 298 298 297 295 297 296 297 299 299 296 297 298 302 299 302 301 300 298 298 298 298 299 299 299 299 299 299 299 298 297 297 297 298 298 297 296 297 296 296 297 297 296 296 296 296 297 297 297 297 296 296 296 296 296 296 296 295 295 295 295 295 294 294 294 294 293 294 293 293 293 293 293 294 294 294 294 294 294 294 293 294 293 293 293 293 292 293 293 294 295 296
299 299 297 298 298 298 298 296 297 297 298 296 298 298 297 296 297 297 301 296 298 299 298 297 297 299 299 298 298 299 299 300 299 298 296 295 295 296 297 296 296 296 296 296 296 297 297 296 296 296 296 296 296 296 296 296 296 296 296 296 295 295 295 294 294 294 294 293 294 294 294 293 293 293 293 292 292 292 292 292 293 293 293 293 293 293 292 293 293 293 293 293 293 293 293 294 295
296 296 297 298 297 298 299 298 297 296 298 296 297 295 294 295 295 300 300 296 297 298 298 297 297 298 299 298 298 298 298 298 298 297 297 297 297 297 297 297 297 296 297 297 296 297 296 296 295 295 295 296 295 295 295 296 296 295 295 295 295 295 294 294 294 294 293 294 294 293 293 292 292 292 291 292 291 291 292 292 292 292 292 292 292 292 292 293 293 292 293 293 293 293 293 293 295
296 298 297 297 298 298 297 295 295 295 298 295 297 293 298 296 299 302 297 297 296 296 298 297 297 297 297 297 297 297 298 297 297 297 298 298 297 297 297 297 298 297 296 297 297 295 296 297 297 296 295 295 295 295 295 295 295 295 295 295 294 294 293 293 293 293 292 293 293 292 292 292 291 291 291 291 291 291 291 291 291 291 292 291 292 292 291 291 291 292 292 291 291 292 292 293 292
297 296 296 297 296 296 295 297 295 296 296 295 296 293 297 301 301 303 299 297 296 297 298 298 297 296 296 296 296 296 297 297 297 297 298 298 298 297 297 298 297 297 297 297 296 295 296 297 296 295 295 295 295 295 295 295 295 295 294 294 294 294 294 293 292 293 292 293 292 292 292 291 291 291 291 290 290 290 290 290 290 290 290 291 290 291 290 291 291 291 291 290 291 291 292 292 292
297 295 296 296 294 297 296 296 295 297 294 295 297 293 296 300 303 301 297 296 296 296 299 299 298 296 296 296 295 296 296 297 297 297 297 297 297 297 297 297 298 297 297 296 296 296 295 296 296 295 295 295 295 295 295 295 294 294 294 294 293 294 293 293 292 292 292 291 291 292 292 291 290 290 290 290 289 289 289 289 289 290 290 290 290 290 290 290 290 290 291 291 289 290 291 291 292
296 296 296 296 296 297 295 297 296 295 295 295 296 295 298 299 299 295 293 295 295 296 297 299 298 296 296 295 295 295 296 296 296 296 297 297 297 297 297 297 297 297 297 296 295 295 295 295 295 295 294 295 294 294 295 294 294 293 293 293 293 293 292 292 292 292 292 291 291 291 291 290 290 290 289 289 289 289 288 289 289 289 289 289 289 289 289 290 289 289 290 290 290 289 290 290 290
297 296 295 299 294 296 294 295 293 294 295 295 295 293 296 299 300 295 292 295 295 294 297 298 298 297 296 296 296 295 295 295 295 295 296 296 296 296 296 297 297 297 297 296 296 295 294 295 295 295 295 294 294 294 294 294 293 293 292 292 292 292 292 292 291 291 291 291 291 290 291 290 289 289 289 289 288 288 288 288 289 289 289 288 288 288 288 289 289 289 288 289 290 289 289 288 288
297 296 295 295 294 293 294 295 294 293 292 293 295 294 294 298 300 301 299 294 295 296 297 299 299 298 297 296 296 295 295 295 296 297 297 296 296 296 296 297 297 297 296 295 295 295 295 295 295 295 294 294 294 294 294 294 293 292 292 292 292 291 291 291 291 290 291 291 290 290 290 289 288 289 289 288 288 287 288 288 288 288 288 287 288 288 288 288 289 288 288 288 289 289 287 288 288
297 297 297 295 294 296 294 296 294 294 293 292 293 292 295 297 299 300 302 297 296 297 298 298 298 298 298 297 296 295 295 295 298 298 298 297 296 296 295 296 297 297 295 294 294 295 294 295 295 294 294 293 293 293 293 292 292 291 291 291 290 291 291 290 291 290 291 290 290 289 290 289 288 288 288 288 287 287 287 287 287 288 287 287 287 287 287 287 287 287 287 286 286 287 288 288 288
296 297 295 295 295 296 297 294 293 292 293 294 295 296 295 296 298 299 300 299 296 296 297 297 298 297 297 297 296 296 295 296 299 298 298 297 296 296 296 295 296 296 295 294 293 294 294 294 294 293 293 293 292 292 292 291 291 291 290 290 290 291 290 290 290 290 290 290 289 289 289 288 288 288 287 287 287 286 286 287 287 287 287 286 286 286 287 286 286 286 286 286 285 285 286 287 287
296 296 295 295 296 293 296 294 290 293 292 294 295 293 293 295 297 298 299 299 297 298 297 297 298 298 298 297 297 296 296 298 298 297 296 297 296 296 295 294 295 294 293 293 293 293 294 293 293 293 293 292 292 292 292 292 292 291 291 290 290 290 289 289 289 290 289 290 289 289 289 288 288 287 287 287 286 286 286 286 286 286 286 286 286 286 286 286 285 286 286 284 286 285 284 286 287
294 295 295 293 295 296 296 291 291 291 291 291 294 291 293 295 297 298 298 298 299 301 301 300 300 300 298 298 297 297 296 296 296 296 296 295 296 295 295 294 294 294 294 292 293 293 293 293 293 293 293 292 292 292 292 291 291 291 290 290 289 289 290 289 289 289 289 288 289 289 288 288 287 287 287 286 286 286 285 285 285 286 286 286 285 285 285 285 285 285 285 284 283 285 285 287 286
294 293 292 292 296 293 294 291 289 290 291 292 292 290 292 295 297 297 298 299 299 301 301 301 302 300 300 299 298 297 296 296 295 295 294 294 295 294 294 293 293 294 293 292 292 292 293 293 292 293 292 292 292 292 292 292 291 291 290 290 289 289 288 289 289 288 288 288 287 288 288 287 287 286 286 286 285 285 285 285 285 285 285 285 284 284 284 284 285 284 284 284 283 282 283 284 286
295 296 295 294 296 295 293 293 290 291 291 289 290 291 292 294 294 296 296 294 295 297 298 299 300 302 302 303 300 299 297 297 296 296 295 294 293 293 293 293 293 292 293 292 292 292 292 292 292 292 292 292 292 292 291 291 290 289 289 289 288 287 287 287 287 287 287 287 287 287 287 287 286 286 286 286 285 285 285 285 285 284 284 284 284 284 284 284 284 284 284 283 283 282 281 282 283
294 295 295 297 297 294 293 291 292 292 292 291 290 287 289 295 296 297 298 296 294 295 295 297 299 299 300 298 299 299 299 299 298 296 295 294 293 293 293 293 292 292 292 292 293 292 292 292 293 292 292 291 291 291 291 290 289 288 287 286 286 286 286 286 286 287 287 287 286 287 287 286 286 285 285 285 285 284 284 284 284 284 284 284 284 284 283 283 283 283 283 283 282 283 281 280 281
292 295 296 296 295 294 292 290 290 288 287 291 290 286 284 292 293 295 295 294 295 297 296 301 304 303 299 298 298 298 298 298 298 298 296 294 294 293 293 292 292 291 292 293 293 293 292 293 292 292 291 291 291 291 291 290 289 288 288 287 288 287 287 288 288 287 286 286 286 285 286 286 286 285 285 285 284 284 284 284 284 284 283 283 283 283 282 283 283 283 283 282 282 282 282 279 280
292 291 290 292 292 291 292 291 291 290 291 291 290 292 286 286 292 295 296 296 295 296 298 300 302 303 302 298 298 298 298 299 298 297 296 296 295 294 293 293 292 292 292 293 292 292 292 292 292 291 291 291 291 291 290 290 288 288 287 287 286 286 286 286 287 285 286 285 284 285 285 285 285 285 284 284 284 284 283 283 283 283 283 283 282 282 282 282 283 283 283 282 282 282 281 280 280
293 288 291 292 293 293 291 292 290 289 286 285 288 292 285 286 291 295 296 293 294 295 297 299 301 303 304 303 299 299 299 299 298 297 296 295 295 294 294 293 293 292 292 292 292 292 292 292 292 292 291 290 290 290 289 289 289 288 287 287 286 286 286 286 286 285 285 285 284 284 284 284 284 284 284 283 283 283 283 283 283 282 282 282 282 282 282 282 282 281 281 281 281 281 281 281 280
289 289 289 289 290 289 291 290 289 288 285 283 287 289 284 286 290 290 289 292 294 295 298 299 301 302 304 304 300 299 298 299 298 298 297 296 296 295 295 295 293 292 292 293 292 292 292 292 291 291 290 290 290 289 289 289 288 287 286 286 285 286 286 285 285 284 284 284 283 283 283 283 283 283 283 283 283 283 283 282 282 282 282 282 281 282 282 281 281 281 281 281 281 280 281 280 280
290 291 293 290 290 289 287 288 288 286 282 285 289 289 288 284 291 291 289 292 295 297 298 299 300 301 301 301 301 300 298 297 298 297 297 297 297 296 295 293 293 292 292 292 291 291 292 291 291 290 290 290 289 289 288 288 287 287 286 286 285 285 285 284 283 283 283 283 282 282 282 283 283 282 282 282 282 282 282 282 281 282 282 281 281 281 281 281 281 281 281 281 280 280 280 280 280
292 291 291 292 289 287 286 285 286 282 282 288 289 290 290 282 288 293 296 295 297 299 298 297 299 301 302 303 300 299 298 297 297 296 296 296 295 295 294 293 292 291 291 290 291 291 291 291 291 289 289 289 289 288 288 287 287 286 286 286 285 285 284 283 282 282 283 282 282 281 282 282 281 282 282 281 281 282 281 281 281 281 281 281 281 281 281 281 281 280 280 280 280 280 280 279 279
291 291 291 287 286 286 283 283 279 281 282 284 283 288 285 284 290 295 294 295 296 296 298 300 301 301 303 304 301 298 297 296 296 295 295 295 294 293 293 293 292 290 289 289 290 290 291 290 290 289 288 288 288 288 287 287 286 286 285 285 284 284 283 283 282 282 282 281 281 281 281 280 281 281 281 281 281 281 281 280 280 280 280 281 281 280 280 280 280 280 280 279 279 279 279 279 278
289 289 288 286 282 282 278 283 282 282 286 284 284 286 282 289 291 296 295 296 298 298 298 299 300 301 302 301 299 295 295 296 296 295 295 295 294 294 293 292 291 290 289 289 290 290 290 290 289 288 288 288 287 287 286 286 286 285 285 284 284 283 282 282 282 281 281 281 281 280 280 280 280 280 280 280 281 280 280 280 280 280 280 280 280 280 280 280 280 279 279 279 279 279 279 279 278
289 294 292 288 287 282 279 282 280 282 285 283 284 282 283 284 290 296 297 298 299 299 300 300 299 299 299 294 294 294 295 294 295 295 295 295 294 294 293 292 291 290 289 289 289 289 290 289 289 288 288 287 287 286 286 285 285 285 284 284 283 283 282 281 281 281 281 280 280 280 280 279 279 279 279 280 280 279 279 279 280 279 279 279 279 279 279 279 279 279 278 278 278 278 278 278 278
290 291 292 288 286 290 284 285 283 283 282 283 280 283 290 290 293 295 293 297 297 298 298 299 297 298 298 295 294 295 295 294 294 294 294 294 294 294 293 292 291 290 289 289 289 289 289 289 289 288 288 287 286 285 285 285 284 284 283 282 282 281 281 281 281 281 280 280 279 279 278 279 279 279 279 279 279 279 279 279 279 279 279 279 279 278 278 278 278 278 277 277 277 278 277 277 277
288 288 286 289 291 290 287 284 280 278 281 281 287 286 289 294 293 293 295 294 295 295 295 296 296 298 299 298 298 297 296 295 294 294 294 294 293 293 293 292 291 290 289 289 289 289 289 289 288 288 287 287 286 285 285 284 284 283 282 281 281 280 280 280 280 279 279 279 279 278 278 278 279 278 278 279 278 278 278 278 278 278 278 278 278 278 278 278 277 277 277 277 276 277 277 277 277
288 285 289 289 293 292 287 282 284 282 279 282 286 284 286 287 285 291 293 292 293 294 295 294 295 297 296 298 299 300 299 297 296 294 294 294 293 293 292 292 291 290 289 289 289 289 289 289 288 287 287 285 285 284 284 283 282 282 281 281 280 280 279 279 279 278 278 278 278 278 278 278 278 278 278 278 278 278 278 277 277 277 277 277 277 277 277 277 277 276 276 276 276 277 276 276 277
290 288 294 288 283 282 285 283 277 278 278 281 286 288 287 289 289 288 289 290 292 293 295 294 293 295 296 297 298 299 298 297 294 293 292 292 292 292 292 291 291 290 290 289 289 289 289 289 288 287 286 285 285 284 284 283 282 281 281 280 280 279 279 278 278 278 278 277 277 277 277 277 278 278 277 278 277 277 277 277 276 276 276 276 276 276 276 276 276 275 275 275 275 276 275 275 276
289 289 288 288 288 287 283 285 285 285 281 281 281 286 284 293 293 294 293 292 294 294 294 294 294 296 296 297 298 298 298 296 295 294 293 292 292 291 291 290 289 289 289 289 288 288 288 288 287 287 286 285 284 283 283 281 281 280 280 279 279 278 278 278 277 277 277 277 277 277 277 276 277 277 277 277 276 276 276 275 275 275 275 275 275 275 275 275 274 274 274 274 274 274 274 274 274
284 285 286 286 286 287 287 286 284 284 282 282 281 280 286 293 296 295 295 295 295 295 294 295 296 296 298 298 299 300 299 299 297 296 294 292 292 291 290 290 289 289 289 288 288 287 287 287 286 286 285 284 283 282 282 281 280 280 279 278 278 277 277 277 276 276 276 276 276 276 276 277 276 276 276 276 275 275 275 274 274 274 274 274 273 273 274 274 273 273 273 273 273 273 273 273 273
289 287 286 287 284 283 281 280 285 282 283 280 280 279 286 294 293 295 295 295 297 297 297 297 297 297 297 298 298 298 299 298 297 296 295 293 291 290 289 288 288 287 287 287 287 287 286 286 286 285 284 283 282 281 281 280 280 279 278 277 277 277 276 276 275 275 275 275 276 276 276 275 275 275 275 275 274 274 274 273 273 273 273 273 273 273 273 273 272 272 272 272 272 272 272 272 272
Wind_Speed
1 3 3 2 2 2 3 1 4 3 3 2 2 4 5 4 0 5 5 4 6 3 1 0 0 6 7 2 3 2 2 4 2 5 0 3 3 3 4 3 3 3 3 3 4 6 8 11 10 11 11 11 12 13 13 13 13 14 15 15 15 15 15 15 15 16 16 16 16 16 17 16 17 16 16 14 13 13 13 13 13 11 9 9 9 9 9 9 10 10 10 11 11 11 11 10 7
1 3 3 1 1 2 3 2 3 2 2 2 3 2 5 6 4 9 9 11 1 5 4 2 2 2 5 5 4 3 2 2 4 3 2 3 4 4 4 3 3 3 3 4 5 5 6 9 10 10 11 12 13 13 14 14 15 15 15 15 15 16 16 15 15 15 16 16 16 17 17 17 17 18 16 16 16 15 15 15 15 14 12 11 10 9 9 9 9 9 9 10 9 9 10 10 10
1 3 3 2 3 2 2 2 4 2 3 4 4 5 5 8 9 9 8 8 6 8 8 6 6 2 1 1 4 5 2 2 3 3 3 5 5 4 3 3 2 2 4 4 4 5 5 9 10 11 11 12 13 13 14 14 15 15 15 16 16 16 16 16 16 16 16 16 16 17 18 18 17 17 17 17 17 17 18 16 15 15 15 14 13 11 11 10 10 10 10 10 10 9 9 10 9
1 1 1 2 2 2 3 3 4 4 5 1 2 6 9 9 9 6 4 7 9 10 8 8 8 2 3 9 2 2 1 2 2 4 4 6 2 6 4 3 1 2 3 2 3 5 7 8 10 11 11 12 13 13 14 14 15 15 15 16 16 16 16 16 16 17 17 17 17 17 17 17 17 17 16 16 17 16 16 16 16 16 15 16 15 14 13 12 11 11 11 11 11 10 12 11 10
2 1 2 2 3 3 2 1 2 2 6 3 1 8 10 8 7 6 6 8 9 6 3 4 2 2 3 4 2 3 3 4 3 2 2 3 4 4 4 2 2 3 3 3 4 5 7 10 10 11 11 12 13 14 14 14 15 15 16 16 16 16 17 17 17 17 17 17 17 17 17 17 17 17 17 17 16 15 15 15 15 15 16 17 17 17 16 14 14 14 13 13 12 12 13 13 13
2 2 2 2 3 3 1 3 5 6 2 0 2 5 11 7 8 8 10 8 7 2 2 5 2 5 4 2 1 1 2 4 4 4 4 4 6 5 3 2 3 3 3 4 5 5 7 9 10 11 12 12 13 14 14 15 15 15 16 16 16 17 17 17 17 17 17 17 17 17 17 17 17 17 16 16 16 16 16 16 16 15 15 15 16 17 18 17 17 16 16 16 16 15 14 14 14
3 3 2 3 2 2 4 5 4 4 3 2 2 3 11 8 9 12 10 7 6 5 3 4 2 3 5 3 3 2 2 1 5 4 1 7 6 5 3 3 4 5 5 4 4 6 8 9 11 11 12 12 13 13 14 14 15 15 15 16 16 16 17 17 17 17 17 17 17 17 17 17 17 17 17 17 17 16 16 16 16 16 16 16 15 16 17 18 18 17 17 17 17 15 15 14 14
2 3 2 4 2 3 5 3 4 2 2 2 3 1 9 10 11 12 14 12 9 7 8 5 4 5 1 1 4 4 0 2 2 6 8 7 7 5 2 3 5 6 5 4 5 5 8 10 11 12 12 12 13 13 14 14 15 15 16 16 16 16 17 17 17 17 17 17 17 17 17 17 17 17 17 17 17 17 16 16 16 17 17 16 16 16 16 16 16 16 18 17 17 16 16 15 14
1 2 1 3 4 1 2 4 2 1 2 2 3 3 0 11 13 12 14 10 5 6 7 9 7 6 4 6 3 3 3 3 5 7 8 8 7 5 3 3 5 5 5 4 4 4 6 10 11 12 12 13 13 14 14 15 15 15 15 16 16 16 16 17 17 17 17 17 17 17 17 17 17 17 17 17 17 17 17 17 17 17 17 17 17 16 16 16 15 15 15 15 15 15 16 16 17
2 3 3 2 2 5 2 3 4 2 3 2 2 6 8 8 11 10 14 10 6 6 5 6 6 8 4 6 2 5 5 8 8 8 8 7 7 6 6 6 5 5 5 5 4 5 5 9 11 12 12 13 13 14 14 14 15 15 15 15 15 16 16 16 16 16 16 16 17 16 16 16 16 16 16 16 16 16 16 16 16 16 16 17 17 17 17 16 16 16 16 15 15 16 16 16 17
3 2 3 4 4 5 5 2 5 2 3 1 3 3 6 7 9 9 9 7 5 6 7 6 4 10 5 3 2 5 6 10 11 11 9 8 7 7 6 5 4 4 6 5 4 4 4 6 10 12 11 13 13 13 14 14 15 15 15 15 15 15 15 15 15 15 15 15 15 16 15 15 15 15 15 15 15 15 15 15 15 15 16 16 16 16 16 16 17 17 16 16 16 15 16 16 17
3 3 3 4 5 5 1 4 1 2 1 2 5 7 3 9 6 8 10 9 7 6 8 12 2 9 6 2 3 6 9 10 11 10 10 9 7 6 6 5 5 5 4 4 4 4 5 5 5 9 11 11 12 13 13 14 14 14 14 14 14 15 15 15 15 15 14 14 15 14 14 14 14 14 14 15 15 15 15 15 15 15 15 15 16 16 16 16 16 16 16 16 16 16 15 16 16
3 1 4 4 1 2 1 3 1 1 4 8 7 7 7 11 12 10 9 8 5 7 8 14 5 7 5 5 4 6 11 12 10 11 10 9 8 6 5 6 5 4 4 3 5 5 5 4 5 7 7 10 11 13 13 13 13 13 14 14 14 14 14 14 14 14 14 14 14 14 14 14 14 14 14 15 15 16 15 16 16 15 15 15 15 15 16 16 16 16 16 16 16 16 16 16 15
3 1 2 4 2 1 3 1 1 5 6 6 4 7 11 10 12 6 6 11 10 11 3 8 2 3 5 0 4 7 10 14 12 11 9 8 7 6 6 6 5 4 3 3 4 5 5 5 5 5 5 6 6 7 12 13 12 13 13 13 13 13 14 14 14 14 14 14 14 13 13 13 14 14 13 15 15 16 16 15 17 16 16 16 16 15 16 16 16 16 15 15 16 16 16 16 16
1 1 1 1 1 1 2 5 2 5 3 7 7 10 8 5 2 4 10 13 11 5 3 1 4 3 4 10 4 9 12 16 14 12 10 8 8 7 6 5 5 4 3 3 3 4 5 5 5 4 5 5 5 5 5 9 12 11 12 12 13 13 13 13 13 13 13 12 12 12 11 10 11 13 13 13 14 15 16 14 16 16 16 16 16 15 15 15 15 15 15 15 15 15 15 15 15
1 2 0 3 3 3 2 5 1 2 4 6 6 4 11 3 3 5 6 3 2 2 5 7 6 6 2 5 5 1 15 17 14 12 10 10 8 7 7 6 5 5 3 3 4 3 4 4 3 4 4 5 5 5 5 6 8 10 11 12 12 12 13 12 12 12 11 11 10 10 8 8 8 8 12 10 12 13 15 14 15 16 16 16 16 16 15 15 15 15 15 15 15 14 15 14 11
1 2 3 3 6 4 3 4 5 4 3 4 7 8 12 8 5 2 3 3 5 6 9 3 10 1 3 3 4 1 16 17 14 14 12 10 8 7 7 6 5 5 4 4 4 5 4 4 4 4 4 5 5 4 4 5 5 5 7 9 10 11 10 10 9 9 8 8 8 8 5 7 6 6 8 9 9 9 12 13 14 15 15 15 16 15 15 15 16 15 15 15 15 15 14 12 8
2 3 3 5 1 4 3 5 7 3 2 6 8 10 10 9 6 5 4 4 4 3 9 6 6 7 4 3 2 5 16 17 16 16 13 11 9 9 8 8 7 7 7 6 5 5 5 4 5 4 4 4 4 3 2 2 3 4 5 5 5 6 7 6 6 6 7 6 6 5 5 5 5 5 6 8 6 7 8 11 12 12 13 13 15 14 14 13 15 14 14 15 15 13 13 7 6
3 2 3 5 3 0 1 1 3 3 1 1 7 8 9 6 10 7 7 7 8 8 9 9 10 11 7 4 4 11 16 17 18 16 16 16 13 13 10 8 9 8 7 6 5 6 4 4 4 5 4 5 5 4 2 2 3 3 3 3 3 5 5 6 5 6 6 6 6 5 5 5 5 4 5 5 4 4 4 6 8 9 10 11 14 12 12 12 14 12 13 13 13 11 7 6 6
1 3 4 4 1 2 3 3 4 3 2 2 6 7 6 2 5 7 8 6 7 13 10 9 13 16 15 9 10 13 18 17 17 18 17 16 14 13 12 11 10 9 8 6 6 5 5 5 5 4 5 4 4 3 2 2 2 2 2 2 3 3 3 3 5 5 6 6 5 5 4 5 4 4 4 4 4 5 4 4 6 6 7 8 12 8 10 9 13 11 11 12 8 7 7 7 7
3 3 4 0 2 3 2 5 4 2 2 2 5 4 6 5 5 8 5 7 12 14 15 14 16 18 14 13 13 15 18 18 18 18 17 16 14 11 10 10 9 8 7 6 6 6 7 6 5 5 4 4 4 3 2 2 2 2 2 2 3 3 3 4 4 4 5 6 6 5 5 5 4 4 5 5 5 5 5 5 6 6 6 7 9 7 7 8 8 8 7 8 7 7 7 7 7
3 3 2 2 2 5 0 2 2 3 1 2 5 8 7 6 2 10 9 12 13 10 15 15 15 11 13 15 17 16 19 20 21 20 20 19 19 15 11 9 8 8 7 7 7 7 7 6 6 5 5 4 3 3 2 3 1 2 2 3 3 3 4 4 4 4 4 6 5 6 5 5 5 5 5 6 6 5 6 6 6 6 7 7 8 7 7 8 8 7 7 7 7 7 7 7 7
4 3 3 2 3 5 2 1 2 5 4 5 6 5 5 8 6 10 13 19 10 7 5 5 11 6 10 13 16 17 19 21 22 22 21 19 18 16 13 11 10 9 8 8 8 7 7 7 6 5 5 4 4 3 3 2 2 2 3 3 3 3 3 3 4 4 4 5 5 6 5 5 5 5 5 6 6 5 5 5 5 5 6 6 7 7 7 7 7 7 7 8 8 8 8 7 7
4 2 2 2 5 7 1 0 3 5 4 4 1 2 7 5 11 3 13 20 15 5 3 1 1 4 12 14 18 20 22 22 23 22 21 21 19 17 14 12 10 8 9 9 8 7 8 8 8 6 5 5 4 4 3 3 3 3 2 2 3 4 3 3 3 4 4 4 6 6 6 5 5 5 5 5 5 4 4 4 4 4 4 4 5 5 6 6 6 6 7 7 7 7 8 8 7
5 5 4 1 2 6 2 2 2 3 4 2 2 5 7 7 5 3 17 17 15 9 5 3 4 7 10 14 17 17 18 18 19 18 14 13 13 12 11 9 10 9 10 10 8 8 9 8 8 7 6 5 4 4 3 3 2 2 2 2 3 3 3 3 3 3 4 4 5 6 6 5 5 5 5 5 4 4 4 4 3 3 3 4 5 5 5 6 6 6 6 7 7 7 7 7 7
8 2 3 1 4 1 1 3 4 3 1 2 4 10 4 1 4 13 24 17 13 11 7 6 7 9 12 15 17 17 17 20 18 17 18 13 11 14 13 12 11 12 11 11 10 8 8 9 8 7 6 5 4 4 3 3 2 3 3 3 3 2 3 3 3 3 3 3 3 4 5 5 4 5 5 5 5 5 4 4 3 3 4 4 4 5 5 6 6 6 6 7 7 7 7 7 7
0 2 2 5 2 3 1 4 1 1 3 4 7 10 5 3 2 12 2 3 4 8 9 7 10 12 13 12 14 15 17 19 20 15 12 13 12 15 15 13 13 13 12 12 10 9 8 9 8 7 6 5 4 4 3 3 2 3 2 2 2 3 3 3 3 2 2 2 3 3 4 5 4 4 5 6 6 6 5 5 4 4 3 4 4 5 5 6 6 6 6 7 7 7 7 7 7
2 1 1 6 6 6 5 4 5 2 5 6 8 12 3 2 3 18 5 2 5 9 9 9 11 12 12 14 13 13 14 14 13 13 19 18 15 16 16 15 15 14 14 13 10 9 9 10 9 8 7 5 5 5 4 3 2 2 2 1 2 3 3 2 2 1 1 1 2 3 3 4 4 4 5 5 6 6 5 5 4 4 4 4 4 5 6 6 6 6 7 7 8 7 7 7 7
2 3 5 3 3 6 7 8 2 4 4 4 3 8 12 8 13 23 5 4 6 7 9 10 12 12 11 12 12 11 13 13 13 14 19 18 14 13 17 15 15 14 10 12 11 11 11 10 9 8 7 6 5 5 4 3 2 2 2 1 2 2 2 1 1 0 1 1 1 2 3 4 3 4 4 5 6 6 6 6 5 4 4 5 5 6 7 6 6 6 7 7 7 7 7 7 7
1 2 3 6 5 8 4 3 2 5 2 4 3 10 7 16 22 15 6 6 5 6 9 10 9 10 10 10 11 11 11 13 15 17 16 15 15 15 16 16 16 13 11 10 12 12 10 7 6 6 7 7 6 5 4 4 3 3 2 2 2 2 1 1 1 0 0 0 1 1 2 3 3 3 4 5 5 5 5 5 5 5 4 6 5 5 6 6 6 7 8 7 7 7 7 8 8
3 1 2 4 4 3 4 4 6 6 3 5 1 9 14 6 13 11 7 8 9 10 10 11 10 10 9 10 10 12 14 15 17 17 15 15 13 12 16 14 16 14 10 12 14 14 11 9 7 6 7 8 7 6 6 4 4 3 3 2 2 1 1 1 1 1 1 1 0 0 0 2 3 3 4 4 5 5 5 5 5 4 5 6 5 4 5 6 6 7 7 7 7 7 7 8 8
1 3 4 2 4 1 3 5 8 7 3 4 5 10 15 15 5 6 4 6 8 11 12 12 10 10 10 10 12 12 13 14 14 15 16 15 14 13 15 16 16 15 14 13 13 12 12 11 9 8 9 9 8 7 6 5 5 4 3 2 2 2 1 1 1 1 1 1 1 1 1 1 3 3 4 4 5 5 5 5 5 5 6 5 4 4 5 5 5 6 6 7 8 8 8 8 8
1 5 7 5 3 4 4 7 3 3 4 5 12 10 11 11 1 1 3 6 8 10 12 13 12 12 11 11 11 11 11 12 13 16 16 15 14 13 14 15 16 16 14 14 15 13 13 12 11 10 11 10 9 8 7 6 4 4 3 3 2 2 2 2 2 2 2 2 1 1 1 2 3 3 4 4 5 5 5 5 5 5 5 5 4 4 5 5 5 6 6 6 7 8 8 9 9
6 2 7 3 7 4 5 5 3 2 7 8 11 9 17 17 8 5 5 8 7 9 13 15 12 10 11 10 11 11 12 13 16 18 19 17 13 15 14 14 15 15 14 15 15 14 13 12 11 10 9 9 7 7 7 6 5 4 3 3 3 3 3 2 2 2 2 2 2 2 2 3 3 4 4 4 5 5 5 5 6 6 6 5 4 5 5 5 5 6 7 7 7 8 8 9 10
4 4 5 7 5 9 11 5 4 4 3 9 9 15 21 21 21 17 7 10 9 13 15 16 14 12 11 12 12 14 13 15 17 16 17 17 16 15 14 14 14 15 13 16 14 13 11 11 10 10 9 9 8 7 7 6 5 4 3 3 3 4 3 3 2 3 3 2 3 2 3 3 4 4 4 5 5 5 5 5 6 6 6 5 5 5 5 5 5 6 8 8 7 7 8 9 9
10 8 9 6 10 8 6 4 3 5 6 9 13 14 18 20 20 18 15 11 12 16 17 17 15 12 13 13 12 12 13 17 13 12 15 15 14 14 13 13 12 13 13 15 15 14 13 12 10 9 9 9 8 7 7 6 5 5 5 4 4 4 4 4 3 4 3 3 3 3 4 4 4 4 5 5 5 5 5 5 6 6 6 5 5 5 5 4 6 8 8 8 9 8 7 7 8
2 1 3 9 10 13 7 3 3 1 3 15 17 16 19 22 21 21 19 6 9 15 18 18 15 12 13 14 14 14 15 17 9 12 13 16 16 14 12 12 12 13 14 15 15 15 15 14 13 13 11 11 9 9 8 8 7 5 4 5 4 4 4 4 4 4 4 4 3 4 5 5 5 5 5 5 5 5 5 6 6 6 6 5 5 5 5 7 6 7 7 7 8 9 7 6 7
7 6 5 10 6 12 1 2 4 3 5 8 6 10 17 20 19 21 16 16 21 20 20 20 21 13 13 16 15 15 15 7 7 10 13 13 13 14 12 11 13 16 16 17 17 17 16 16 15 13 11 11 10 10 8 7 6 6 5 5 5 4 4 4 4 4 4 4 4 5 5 6 6 6 5 5 5 6 6 6 6 7 6 5 5 6 6 6 7 6 6 8 6 7 8 7 7
3 7 4 5 11 6 7 3 4 3 4 11 10 14 17 20 20 23 19 19 21 21 19 19 19 14 13 14 16 13 10 13 11 14 13 14 15 16 13 13 13 17 17 18 17 16 16 15 14 13 11 10 9 9 8 7 6 5 5 4 4 3 3 2 2 3 3 4 5 5 6 6 6 6 6 6 5 6 6 7 7 6 6 5 5 5 5 6 5 7 7 7 9 7 8 6 6
6 4 5 12 2 2 6 3 3 4 5 8 9 16 17 19 21 24 22 15 21 20 16 18 15 18 19 16 12 11 13 14 16 16 16 15 15 15 14 14 14 15 15 15 16 18 14 13 14 13 11 10 9 9 8 6 6 5 5 3 3 2 2 2 4 5 6 6 7 7 6 6 6 6 6 6 6 6 7 7 7 6 6 5 5 5 6 6 6 6 6 7 7 10 7 7 5
6 8 10 11 7 6 7 3 4 4 6 2 11 14 15 14 14 10 2 1 9 17 11 15 17 16 17 7 8 13 16 15 14 14 15 15 16 18 19 16 14 16 15 16 16 16 11 16 14 13 11 11 9 9 10 8 7 6 5 4 3 3 4 5 5 6 6 6 6 6 7 6 6 6 6 7 7 7 7 7 7 7 6 5 5 5 5 6 6 6 7 7 7 8 11 9 7
5 9 14 12 3 8 2 3 7 6 6 3 5 13 12 3 8 7 2 3 6 6 8 14 15 12 11 14 15 11 13 14 14 15 16 17 17 16 16 16 16 15 16 15 14 15 13 14 14 13 10 10 10 11 11 9 8 7 7 6 6 6 6 6 7 6 5 5 5 4 5 6 6 6 6 7 7 7 7 7 7 7 6 5 4 5 6 6 6 7 6 7 8 8 9 11 10
5 6 7 12 10 2 1 1 0 5 6 2 4 3 18 6 7 7 3 3 9 3 5 10 12 7 9 10 10 12 13 12 12 11 13 15 17 17 18 18 19 18 17 13 13 14 16 14 14 14 12 10 10 11 12 9 8 7 8 7 6 6 5 5 4 3 3 4 4 5 5 5 6 7 7 6 6 6 7 7 7 6 6 6 5 5 6 7 7 7 6 7 7 7 8 11 11
7 3 1 3 4 7 5 5 6 9 4 4 3 6 15 14 10 8 8 10 8 8 11 11 16 20 7 8 10 12 12 12 11 14 15 16 17 19 21 20 18 18 15 13 13 13 17 16 15 15 12 11 10 11 12 10 9 8 8 7 6 6 6 5 4 4 4 4 5 6 5 5 5 6 6 7 6 6 7 7 7 6 6 6 6 6 7 7 7 7 7 8 8 8 9 10 11
0 1 1 4 4 3 5 5 5 2 6 9 10 9 7 14 6 12 10 15 11 15 18 16 17 17 15 7 9 11 12 12 12 12 15 16 18 19 18 17 17 16 14 15 15 14 14 14 14 14 13 12 11 13 12 11 9 9 8 7 7 6 6 5 4 4 4 4 6 6 6 6 6 7 7 7 7 7 7 7 6 6 6 6 6 6 7 8 9 9 9 8 9 9 8 9 10
2 5 7 7 5 5 2 3 3 4 1 11 10 12 7 21 10 6 2 4 8 12 14 17 15 13 11 7 7 8 9 9 10 13 13 14 15 15 16 14 15 15 12 14 13 12 13 12 14 15 15 12 11 14 12 12 11 9 9 9 9 7 6 5 5 5 5 5 6 6 6 6 6 6 6 7 7 7 7 7 6 7 7 7 6 7 8 9 9 10 10 10 10 11 10 10 12
9 4 5 3 3 2 2 1 2 2 10 10 12 18 13 16 2 10 10 8 9 10 8 8 8 8 11 11 7 7 8 9 9 10 11 11 11 12 13 16 15 13 11 14 13 14 13 13 14 16 16 12 13 14 13 13 12 10 9 10 10 9 8 6 5 6 6 5 5 5 5 6 6 6 6 6 7 7 7 6 6 6 7 7 7 8 8 8 8 9 9 11 12 12 11 12 13
5 3 2 1 3 3 2 0 3 4 11 3 7 14 17 12 3 5 4 3 8 10 12 12 10 8 8 7 6 7 8 8 7 8 9 10 10 12 12 15 16 15 13 15 14 14 14 13 14 17 16 15 13 13 13 13 12 11 10 10 10 9 8 6 7 7 6 6 6 6 5 6 6 6 6 6 6 6 6 6 6 7 7 7 7 7 8 8 8 9 9 9 10 11 12 12 13
2 4 3 2 3 3 4 4 4 9 9 1 2 5 5 23 19 2 2 4 8 9 8 7 7 7 6 6 4 5 5 6 7 8 8 10 12 13 15 16 15 16 17 19 17 15 14 14 17 18 18 16 14 14 14 14 12 11 10 10 9 8 8 8 7 6 5 5 5 5 6 6 6 6 6 6 6 7 6 6 5 5 6 6 7 8 9 10 10 10 10 11 12 12 11 12 12
8 9 6 3 5 4 6 7 1 5 3 3 4 2 13 11 9 16 18 15 12 10 12 10 7 6 5 2 1 3 5 6 6 7 8 10 11 12 13 15 15 14 17 17 17 16 14 13 17 19 17 16 14 14 14 13 12 11 10 9 8 7 8 7 7 6 6 5 5 6 6 6 6 6 7 7 6 6 6 6 6 7 7 8 9 10 10 10 11 11 11 12 13 12 13 15 15
11 4 7 7 3 2 5 5 6 8 6 1 6 1 6 1 2 10 20 20 16 11 10 8 6 9 5 1 2 2 4 5 5 7 9 10 11 12 12 14 13 14 16 16 16 16 14 15 16 19 17 17 16 15 13 13 11 11 10 9 8 7 7 6 6 5 5 5 5 6 6 6 6 6 7 7 7 7 7 6 7 8 8 9 10 10 10 10 11 11 12 13 13 12 14 14 14
4 0 3 0 9 4 10 3 4 5 8 8 7 8 4 6 4 1 2 4 9 7 12 9 9 11 7 5 6 6 5 5 6 7 8 9 10 11 11 12 13 12 16 15 16 16 16 17 17 19 18 17 15 15 13 13 11 10 10 10 9 7 6 5 5 5 5 5 6 6 7 7 7 6 7 7 8 7 7 7 7 8 9 10 10 11 11 11 11 12 12 12 14 11 13 16 15
7 6 8 6 5 5 6 1 2 1 2 17 3 10 13 6 11 9 6 9 10 8 9 9 12 14 8 8 8 9 8 7 7 8 8 9 9 11 11 13 12 13 15 18 20 19 20 17 17 19 17 15 16 15 14 12 11 10 10 9 8 8 7 7 6 6 6 5 6 7 7 7 7 7 7 6 7 7 6 6 7 8 9 10 11 11 12 12 12 12 12 14 14 13 14 15 15
10 6 7 5 0 4 2 5 0 1 4 17 2 18 19 10 10 5 8 9 10 11 14 12 12 10 8 11 11 10 9 8 8 8 8 9 10 12 12 12 15 16 18 18 19 16 16 15 18 18 16 18 16 15 13 12 12 11 10 10 9 8 7 7 6 6 5 6 6 6 7 7 7 6 6 6 6 6 6 7 7 9 9 10 11 11 11 12 12 12 13 14 14 14 14 14 14
3 1 2 6 4 4 1 1 5 5 11 8 13 19 17 19 13 7 9 14 13 15 13 8 10 11 13 12 13 10 5 4 7 8 8 9 11 12 13 14 14 15 15 15 15 14 14 13 15 16 17 17 15 12 12 10 10 8 7 8 8 7 6 6 5 5 5 6 7 7 7 7 7 7 7 6 6 6 6 6 7 9 9 10 10 11 11 11 12 12 13 13 13 13 13 14 13
3 1 2 4 3 2 7 6 1 2 10 9 22 23 22 1 8 9 11 15 13 12 8 11 14 14 12 10 9 9 7 8 8 8 9 10 11 12 13 14 15 16 15 13 15 12 16 15 15 14 13 13 13 13 12 11 10 8 8 7 7 6 6 6 6 6 6 7 6 6 7 7 7 6 7 6 5 5 6 7 8 8 10 10 11 11 11 12 12 12 12 12 12 13 15 15 15
5 5 7 4 3 3 3 2 3 5 6 9 12 18 20 0 9 12 9 10 10 9 11 10 10 12 12 11 9 8 9 8 8 9 9 10 11 11 11 10 10 10 10 10 12 15 16 13 15 15 17 15 14 13 12 10 9 9 9 8 7 7 7 6 6 6 7 6 6 6 6 6 6 7 6 6 5 6 7 7 8 9 10 10 11 11 10 11 12 13 12 14 15 14 16 15 14
11 16 14 17 11 6 6 9 4 2 6 9 6 16 23 3 5 9 5 4 5 8 10 8 9 11 11 9 10 10 8 9 9 9 9 8 8 8 8 8 9 10 12 14 12 13 14 15 15 14 13 13 14 12 11 10 9 8 9 8 7 6 6 6 6 6 6 6 5 5 5 5 7 6 5 5 6 6 6 8 9 10 10 11 11 12 11 11 12 13 14 11 12 14 15 15 15
Wind_Direction
191 156 141 152 206 242 227 162 231 141 241 175 136 209 122 195 227 170 187 131 193 126 192 156 34 161 200 269 224 45 53 232 353 203 17 80 126 96 61 27 20 8 341 352 6 16 28 35 36 41 47 49 51 52 52 53 54 53 54 53 51 50 50 49 47 46 44 44 42 43 44 42 45 44 45 43 43 44 43 41 34 28 18 6 352 349 341 339 336 332 329 326 327 336 348 337 322
175 128 127 197 52 260 170 328 278 179 214 167 184 201 140 167 192 199 180 189 90 130 145 154 156 41 30 9 41 105 169 13 4 40 90 117 145 103 68 45 24 17 359 15 20 18 37 41 36 48 50 52 53 53 53 54 53 53 53 53 52 51 51 50 49 48 47 45 41 42 44 44 43 41 39 37 39 38 40 38 33 28 25 19 15 10 359 351 344 343 337 335 335 338 342 344 344
149 180 134 189 151 302 80 234 245 212 239 245 145 192 110 179 203 193 188 183 115 120 131 126 120 127 187 25 200 214 185 62 102 114 83 144 164 123 85 54 36 18 35 19 13 29 48 37 33 47 53 53 54 54 55 55 53 52 52 52 52 50 50 50 50 49 48 46 44 42 42 44 42 41 38 35 34 30 31 34 31 22 20 18 16 15 14 7 358 349 345 341 342 345 340 340 338
133 309 232 196 157 262 202 194 266 235 245 356 171 162 180 189 194 167 93 114 123 132 138 149 174 56 243 205 246 20 76 172 164 138 140 184 32 107 92 66 45 73 59 27 34 52 50 40 40 50 52 55 56 56 56 56 55 53 52 51 51 50 49 49 49 48 48 47 46 45 44 43 43 42 40 38 35 33 26 25 28 24 21 19 15 14 12 10 6 4 3 357 354 359 354 345 339
248 83 298 238 264 174 250 258 291 247 257 160 5 155 193 199 168 140 125 130 135 148 180 150 156 94 338 329 70 251 103 65 180 227 103 92 88 91 94 60 104 112 88 53 54 57 61 40 46 52 56 56 56 57 56 55 54 53 52 51 50 48 48 47 47 47 46 46 46 45 44 44 43 42 40 37 35 34 31 26 24 19 25 20 17 15 14 13 12 12 12 13 15 14 10 0 350
146 128 40 261 279 14 234 203 201 228 5 354 198 176 189 189 164 151 139 148 158 181 343 197 304 159 194 195 340 244 134 184 122 170 174 119 107 111 102 148 102 92 75 67 50 56 58 49 55 56 57 58 60 58 57 56 56 53 52 51 49 49 48 47 46 46 45 45 44 44 43 42 42 42 40 37 34 31 28 27 25 22 19 14 13 9 5 9 17 18 18 17 19 15 8 1 357
171 169 121 116 135 246 263 245 247 247 99 318 354 140 178 165 151 141 145 155 209 252 205 215 166 119 236 142 192 231 354 354 187 138 195 117 118 116 129 119 112 91 68 60 58 62 52 53 57 62 60 61 62 61 60 59 57 56 54 52 50 49 49 48 47 45 45 44 43 42 41 41 40 40 39 37 34 31 28 25 25 24 24 20 15 12 9 5 3 6 8 13 10 6 0 357 354
33 276 102 225 150 244 236 264 259 242 108 266 7 249 169 157 152 162 164 171 184 205 183 217 213 255 56 183 226 103 75 227 16 108 116 130 123 117 118 121 109 80 75 68 59 56 60 50 59 60 61 63 63 63 62 60 58 56 55 53 52 50 49 48 47 45 45 44 43 41 40 40 39 39 37 36 34 30 28 26 24 23 22 19 18 16 15 13 6 359 2 3 4 4 357 353 349
83 249 79 241 208 172 248 234 256 40 324 200 223 304 111 161 168 166 169 194 85 208 160 183 188 192 139 160 210 94 169 140 124 116 125 127 130 128 106 96 92 87 72 66 61 58 63 48 55 58 61 61 62 62 62 60 59 57 55 54 53 52 50 49 47 47 45 43 42 40 40 39 38 38 37 35 32 30 28 26 25 23 21 18 16 15 14 12 10 9 7 3 359 357 358 356 352
152 273 184 237 345 232 259 211 226 183 225 136 237 187 177 165 177 190 177 189 193 172 170 159 171 238 113 205 162 180 185 158 145 133 136 132 131 132 115 94 94 96 91 77 67 69 62 50 51 56 59 60 60 61 61 61 61 59 57 56 54 53 53 51 50 48 46 45 42 41 39 38 38 37 37 35 33 30 28 26 25 23 22 19 16 13 12 10 8 7 7 6 4 0 358 357 355
213 94 358 221 216 249 237 230 212 130 208 134 233 210 190 179 181 196 198 193 154 181 129 157 181 230 192 220 227 50 122 155 164 155 149 140 140 141 126 103 91 88 93 73 73 79 83 71 56 54 59 59 60 61 61 60 60 59 58 57 55 54 52 51 51 50 48 46 45 42 40 38 37 35 35 35 33 30 28 25 23 23 22 19 15 14 12 9 6 5 4 4 3 2 359 356 353
216 208 181 242 242 256 305 281 202 181 150 191 206 171 169 182 186 205 206 211 190 198 178 175 205 153 209 223 213 150 153 171 175 149 148 149 149 136 125 121 106 97 91 92 83 77 77 79 81 65 58 57 59 61 60 61 60 59 58 57 55 54 51 50 49 48 48 47 45 43 41 39 36 36 33 33 31 28 27 23 20 21 20 18 15 13 11 9 6 4 3 1 360 359 359 358 354
284 83 216 248 297 252 61 261 244 149 212 209 188 158 148 182 198 212 209 220 192 193 215 197 39 191 216 206 59 139 178 179 166 151 151 160 145 136 129 120 121 110 103 100 94 84 77 83 77 71 64 69 62 58 58 59 60 60 60 59 57 55 53 52 47 45 43 42 41 40 39 37 36 34 33 30 30 25 23 21 16 17 17 15 13 11 10 8 6 3 2 359 357 356 355 354 352
258 236 245 245 57 303 246 300 92 226 218 160 140 139 173 183 206 221 194 211 205 211 47 172 156 187 260 43 172 192 193 173 160 152 155 150 142 137 132 129 128 123 115 113 104 94 85 80 76 73 69 67 69 73 61 52 55 57 57 57 57 55 54 51 48 45 42 40 37 33 33 33 33 29 30 28 27 24 19 16 12 13 13 12 10 9 8 6 4 2 0 357 356 353 351 348 346
245 208 181 354 191 247 187 242 249 223 254 153 140 154 168 215 38 213 210 214 217 68 110 209 174 143 235 184 199 196 177 168 157 153 147 142 140 143 140 142 144 138 130 118 109 106 98 90 90 84 74 72 68 65 68 59 51 55 56 56 54 52 52 50 49 46 41 37 33 31 25 29 27 29 21 24 20 21 18 13 9 10 9 8 6 6 4 3 0 359 357 354 352 350 347 343 339
88 187 138 234 236 247 162 232 209 266 230 163 139 162 173 131 208 198 219 317 70 63 162 186 210 236 21 219 41 183 159 155 153 149 146 146 150 149 156 165 164 155 158 155 135 120 103 105 105 95 84 76 74 74 73 73 60 57 57 56 54 53 49 47 45 40 39 30 26 16 19 19 25 29 21 18 15 16 16 10 7 8 7 5 2 1 359 358 356 355 354 351 349 346 343 335 330
233 276 207 215 252 199 157 213 164 239 92 140 126 174 187 186 167 262 13 243 220 180 201 211 194 101 230 45 42 64 151 148 147 152 153 158 164 169 175 179 173 169 179 175 168 141 137 129 122 109 93 87 82 80 78 74 61 67 70 60 59 53 48 47 43 43 33 37 15 17 15 24 23 21 19 10 9 13 18 7 5 5 5 4 359 356 355 354 352 350 350 349 346 342 338 325 322
242 214 244 236 283 224 173 209 197 11 283 165 179 193 205 197 161 166 172 189 225 137 214 210 253 247 248 54 1 169 146 151 157 162 170 171 178 177 182 184 182 181 180 174 171 157 152 141 131 129 116 104 100 96 92 91 103 77 69 73 62 64 54 51 53 41 40 29 19 26 26 26 17 26 20 8 3 5 15 4 2 1 2 2 357 350 350 350 348 347 345 344 340 340 333 331 336
232 162 239 288 182 289 185 236 223 203 179 143 187 196 215 219 157 161 204 200 192 219 223 218 234 235 208 212 166 165 158 160 170 177 176 179 185 183 183 177 189 178 183 175 166 169 161 148 153 131 128 128 121 116 120 118 106 98 92 85 88 70 63 52 49 43 37 26 22 22 26 23 9 21 19 4 332 344 10 354 355 354 354 355 354 343 346 346 343 341 342 341 334 335 334 339 338
97 248 253 245 248 294 235 219 224 218 92 161 183 196 219 189 183 124 219 215 185 223 216 203 228 233 212 177 164 169 171 172 179 184 186 187 189 186 183 179 185 186 179 174 159 164 169 162 154 145 144 149 153 127 138 124 106 101 87 80 77 75 61 58 54 47 37 29 22 23 21 14 4 12 11 14 344 9 14 3 357 349 356 354 351 340 343 348 338 339 338 338 333 343 341 335 335
120 227 243 11 49 261 215 197 219 167 254 238 194 121 212 212 192 177 206 235 230 232 227 208 211 223 205 163 166 170 177 180 186 192 192 192 194 193 190 184 182 177 173 159 159 172 175 167 162 155 154 151 144 139 144 120 118 108 89 83 75 66 55 52 49 49 41 28 26 20 14 13 5 15 13 9 9 11 7 7 4 5 2 357 352 350 348 344 340 340 338 339 339 336 335 332 331
166 265 14 63 122 245 108 204 96 183 333 198 158 170 210 98 165 217 205 225 247 226 224 221 235 233 164 166 175 175 182 185 189 193 196 194 193 191 187 180 175 170 161 170 172 168 176 174 173 158 158 150 140 138 127 122 167 88 75 62 73 58 54 46 42 38 35 29 22 16 7 13 10 13 10 8 7 7 8 6 4 3 359 358 357 354 353 345 341 342 338 338 334 331 326 324 321
235 172 230 210 214 265 46 213 151 175 173 189 182 209 89 186 218 215 222 230 242 62 59 231 234 219 173 163 163 179 186 190 192 196 195 196 196 194 189 181 174 174 172 177 169 172 174 173 173 172 160 147 138 131 134 126 90 80 63 50 50 58 54 49 47 41 39 33 22 21 11 9 8 7 5 3 3 2 6 2 1 360 358 356 355 350 350 345 341 339 339 334 332 326 322 319 313
264 261 164 205 175 224 105 316 99 214 224 219 29 63 220 175 243 190 232 237 241 85 90 73 261 163 145 163 177 184 188 190 196 198 196 198 194 193 188 184 181 171 177 176 175 171 175 178 173 174 164 161 151 143 130 123 95 81 82 90 69 51 49 53 47 40 35 36 33 20 10 7 4 3 359 356 351 354 355 351 352 354 354 352 346 344 342 339 334 335 331 327 324 320 316 314 312
210 233 186 175 200 238 236 276 243 218 243 29 235 230 242 212 265 20 248 243 235 218 143 127 155 168 173 182 186 191 193 196 198 197 197 201 196 188 185 187 180 177 184 178 176 177 177 174 176 177 162 168 151 142 128 116 114 102 86 75 72 47 59 52 42 39 34 32 33 21 13 3 4 359 355 345 337 344 339 343 344 354 344 349 345 344 343 335 331 330 329 330 327 322 318 315 315
207 231 159 160 230 236 139 248 222 214 236 204 234 245 235 86 324 261 256 253 228 212 183 175 168 179 189 197 191 190 195 197 196 193 196 188 185 185 190 190 183 188 185 176 177 181 176 173 181 175 172 163 149 145 133 137 133 113 85 72 68 70 64 58 44 42 37 25 32 17 16 6 2 356 349 341 336 336 331 336 342 352 345 348 347 341 341 332 328 323 325 322 323 322 317 315 311
238 169 241 243 260 308 92 259 113 125 253 179 237 261 250 93 194 276 135 358 174 172 202 186 192 203 198 199 197 198 197 198 195 193 186 194 193 198 193 191 191 189 180 183 182 180 172 176 178 172 163 157 152 138 131 118 115 99 86 84 73 66 60 58 50 44 35 33 21 18 6 11 359 352 347 340 333 331 331 335 340 342 342 352 346 339 336 326 318 315 318 318 318 315 311 313 311
66 260 286 254 262 260 244 265 258 218 251 182 237 262 288 160 226 246 203 152 164 180 199 195 207 216 208 203 199 202 206 203 194 187 193 189 199 197 192 191 189 185 186 185 182 175 172 180 175 172 169 158 151 139 130 125 113 101 102 99 89 69 57 59 58 60 44 38 31 14 8 7 353 342 342 337 331 324 326 330 328 338 341 346 343 340 330 319 312 309 308 307 304 303 304 304 304
99 226 266 186 229 262 201 227 168 189 227 168 200 262 239 194 230 235 194 160 166 198 203 204 212 218 215 208 205 202 206 196 192 197 204 202 197 193 196 190 184 185 188 182 179 173 177 179 174 173 167 156 160 143 141 139 136 132 142 137 110 91 84 66 77 91 8 61 18 24 7 357 343 341 336 329 323 316 320 319 329 332 339 342 333 329 323 315 313 314 313 312 305 307 300 302 303
220 160 315 284 241 258 150 115 138 188 174 152 189 286 239 204 225 235 128 164 168 204 220 212 213 215 215 209 210 210 205 200 201 206 205 203 198 193 194 187 184 184 179 182 177 179 176 174 170 166 167 163 158 153 154 162 160 160 163 157 117 139 100 128 165 237 93 317 32 31 353 353 335 331 329 321 318 315 314 312 321 325 334 333 325 327 327 325 317 315 315 314 313 307 308 310 308
253 106 247 263 274 228 143 183 149 198 107 176 244 262 280 228 206 229 160 171 182 224 226 222 213 211 213 213 213 214 211 209 210 207 207 205 198 189 192 183 184 185 177 181 182 180 176 175 172 165 171 164 160 161 169 168 161 171 178 163 141 127 146 207 200 205 216 221 252 165 344 332 318 317 314 313 310 308 309 307 311 317 329 319 317 324 317 313 307 309 311 311 306 304 305 305 305
175 262 226 172 231 251 153 159 186 206 120 206 194 265 262 274 234 147 140 185 206 236 240 229 214 213 212 214 218 218 216 212 217 215 213 208 196 189 191 187 184 186 186 179 176 178 180 178 174 171 173 167 170 168 172 169 170 174 177 157 142 152 213 210 210 212 230 227 205 237 211 283 307 304 303 300 300 302 302 302 304 314 312 307 309 308 303 298 303 300 296 298 305 303 305 304 305
189 225 272 257 198 253 296 170 209 302 117 195 210 258 296 278 193 116 148 184 201 235 245 239 226 216 216 219 218 218 216 214 214 215 211 205 203 195 192 188 186 189 185 178 178 178 180 176 178 178 177 174 173 172 170 172 172 169 181 169 156 181 225 216 213 223 233 222 235 243 226 281 292 288 286 286 284 287 292 296 295 296 301 299 296 304 296 296 301 297 296 299 297 303 303 301 302
220 145 257 264 260 280 272 118 181 167 211 207 222 249 250 265 256 162 176 182 199 230 246 244 229 215 213 219 220 213 211 213 213 212 210 202 199 197 193 193 186 186 186 180 182 179 181 176 180 181 175 175 174 171 174 175 175 173 178 177 185 209 218 240 232 231 234 247 239 242 237 272 279 278 277 279 281 281 281 283 287 285 291 292 293 296 293 290 288 295 299 299 300 302 303 307 306
258 201 243 256 213 223 262 269 131 167 185 246 224 230 258 264 270 267 209 182 206 239 246 250 236 214 213 219 221 216 211 215 221 212 204 199 196 193 193 192 186 185 185 183 180 179 179 176 180 176 175 175 174 173 171 175 168 180 171 182 196 218 221 227 237 238 240 241 241 243 252 256 267 267 267 270 274 283 280 278 277 283 282 283 285 283 288 286 289 297 296 297 296 294 296 297 299
264 256 265 275 276 254 236 215 110 213 212 235 231 236 254 263 269 268 264 176 219 245 254 257 246 224 221 221 219 213 215 225 222 207 198 195 194 188 190 190 187 184 184 182 180 179 180 177 179 177 181 177 176 176 176 182 184 185 187 184 203 214 222 218 220 231 237 235 231 242 241 249 264 267 267 270 271 273 284 281 279 277 273 275 278 280 285 298 301 299 294 297 296 293 285 289 299
40 169 232 253 259 267 267 127 108 161 268 251 251 248 255 265 267 269 271 240 218 247 254 254 246 221 226 226 219 215 216 227 207 202 192 191 189 186 186 186 185 182 182 182 181 184 186 180 178 183 181 179 179 180 183 185 182 183 187 201 205 196 206 211 223 225 222 233 230 243 246 249 258 264 264 266 274 277 275 278 274 271 269 271 268 274 284 288 291 290 296 294 295 299 298 298 304
232 248 240 262 222 263 294 102 116 179 221 270 236 256 258 262 267 268 262 267 260 249 248 251 253 231 229 227 223 215 222 217 184 194 198 189 187 185 183 186 182 184 188 184 186 186 186 183 184 182 180 182 188 186 181 183 186 186 181 184 193 196 202 212 222 207 216 225 237 241 246 250 257 262 266 270 272 271 275 275 273 270 273 275 276 278 279 284 287 294 301 302 295 299 298 305 305
190 235 252 273 261 275 280 67 134 154 201 263 274 278 269 266 265 266 254 243 257 253 249 255 258 250 232 226 224 216 206 217 205 215 201 194 187 184 186 189 193 192 186 187 186 183 186 183 185 184 183 182 188 185 180 185 180 177 181 170 184 197 215 250 258 251 241 242 240 240 243 253 259 259 260 264 268 268 269 271 271 276 275 282 288 290 291 290 293 295 301 303 310 300 289 292 295
204 196 230 240 250 327 276 113 93 177 213 300 311 291 275 265 257 254 259 234 254 262 259 257 252 252 249 234 211 203 212 217 216 206 201 192 188 188 188 191 191 189 187 186 186 186 183 185 184 184 182 184 185 184 185 177 172 166 178 183 183 225 234 207 237 241 239 239 242 239 238 248 254 260 261 261 260 261 263 266 272 272 278 279 282 289 290 289 293 301 302 301 302 302 301 298 299
206 222 231 254 238 223 229 313 297 179 242 302 281 267 255 228 244 258 225 311 256 271 277 266 259 244 248 248 211 202 216 215 217 204 197 191 192 194 194 191 186 191 189 187 185 185 182 183 182 180 180 185 184 179 180 173 163 170 175 176 201 220 232 235 230 230 221 227 235 231 233 235 248 257 259 255 256 259 260 260 265 273 274 278 281 282 286 288 291 286 291 290 288 295 300 298 293
208 223 229 244 289 265 125 22 338 292 276 143 325 324 287 167 202 231 274 238 253 258 261 265 260 245 228 232 233 213 219 222 213 200 194 193 195 196 194 191 192 194 194 190 183 183 174 179 178 179 181 183 183 179 180 178 178 183 179 188 195 201 210 204 213 216 204 212 226 231 240 241 247 253 254 258 255 259 261 263 266 271 277 278 282 287 287 288 285 287 287 288 286 282 288 298 293
222 239 209 239 250 280 18 292 25 263 262 93 297 350 291 146 187 185 183 229 261 238 233 279 279 221 201 218 215 207 216 219 217 210 191 193 196 195 196 195 195 195 197 181 177 180 178 180 178 179 181 181 181 180 179 179 182 189 195 200 208 211 216 215 218 226 232 241 252 258 261 260 255 259 262 260 262 264 269 268 268 271 279 284 287 288 288 286 285 283 279 274 276 283 281 283 287
234 64 154 123 184 214 209 205 224 266 19 264 160 230 276 281 218 217 224 227 224 265 260 246 264 277 221 207 203 208 213 213 200 202 201 199 194 195 198 197 193 197 186 176 176 180 182 181 177 181 181 180 176 176 179 183 185 189 192 200 210 219 221 224 211 229 240 257 258 263 272 269 266 261 267 269 267 267 267 268 266 271 278 281 284 279 277 278 278 273 267 265 267 262 262 266 282
337 117 343 114 127 159 162 197 247 300 337 281 177 199 265 262 187 202 232 241 232 245 254 253 251 261 271 209 213 204 211 210 200 198 203 199 200 201 199 196 196 187 183 178 179 181 180 179 178 179 182 181 178 179 180 185 189 188 191 196 208 218 221 228 227 231 243 241 252 259 262 269 267 260 255 260 257 258 258 261 264 269 272 275 271 273 273 271 271 272 270 266 263 265 259 263 269
111 127 87 85 84 72 177 220 243 254 279 258 168 175 239 278 142 149 30 195 227 237 239 249 241 246 267 254 216 202 205 207 206 211 206 204 203 201 198 192 185 187 181 175 176 175 177 174 179 179 184 182 178 180 182 185 189 187 194 201 204 209 210 217 220 226 228 235 246 248 254 259 258 260 256 253 255 255 258 263 268 269 270 272 271 272 275 274 272 269 266 265 266 264 261 259 257
127 170 111 81 73 126 105 63 259 284 241 242 178 187 202 277 151 146 154 183 197 218 245 257 266 257 258 256 224 185 200 199 204 208 210 208 199 194 184 189 186 178 171 174 179 181 179 179 180 182 183 181 179 181 183 186 188 192 198 200 203 209 211 216 220 222 225 231 243 250 253 260 264 267 270 266 259 260 262 266 270 273 278 274 273 275 274 276 275 275 275 269 264 260 262 262 262
161 156 175 195 206 154 173 166 182 231 262 126 188 192 194 236 189 176 128 109 198 196 216 234 245 246 248 238 201 195 188 195 195 196 204 195 185 188 183 192 188 183 172 184 185 181 182 181 179 181 181 183 178 180 183 187 187 193 199 199 204 209 208 211 219 225 223 231 243 256 258 263 264 264 263 266 261 260 269 272 275 277 277 276 276 279 281 278 278 279 275 269 266 261 259 259 258
212 160 168 222 263 357 250 147 228 199 247 129 107 150 250 234 243 70 172 238 224 235 239 229 229 244 245 255 167 175 182 181 186 192 190 191 193 189 192 194 184 181 186 187 185 182 181 181 181 181 185 181 177 179 183 186 187 192 195 198 205 206 211 215 220 226 225 231 235 239 247 254 259 258 255 260 263 262 270 271 274 277 282 280 282 284 281 278 276 273 272 269 264 262 259 256 257
187 190 178 192 252 232 266 253 228 295 237 137 121 115 249 284 286 225 231 217 218 210 231 239 245 250 264 3 110 188 190 191 186 189 194 193 192 190 190 189 188 186 186 186 184 182 180 181 183 185 183 177 177 179 183 184 189 191 192 195 199 203 209 212 220 223 224 229 236 243 247 253 261 262 271 267 270 271 270 271 276 278 281 283 282 281 279 278 275 273 271 269 267 263 261 258 258
199 183 183 225 194 187 259 260 260 275 305 139 230 130 237 55 208 191 213 216 218 209 224 230 242 256 247 82 336 253 211 197 193 199 201 197 193 188 185 189 188 186 184 182 185 184 179 184 184 185 178 180 178 178 180 183 186 189 189 193 196 201 206 210 217 221 224 228 235 243 250 254 256 264 268 273 276 273 276 280 282 287 289 286 284 282 279 275 273 274 271 269 267 263 262 260 258
152 34 25 319 231 183 248 319 304 326 325 291 156 223 256 231 73 304 33 102 228 230 239 225 235 243 210 223 226 230 225 207 202 212 212 206 195 189 187 190 190 184 185 185 185 182 183 187 184 184 180 174 174 176 180 182 183 182 185 190 195 199 205 211 217 216 224 227 237 245 252 254 257 262 265 266 267 269 277 282 286 282 285 282 280 277 276 274 274 273 271 267 266 262 262 261 260
154 148 207 196 14 201 259 323 126 161 201 265 164 258 253 237 240 152 184 176 208 217 229 223 231 241 222 225 230 215 212 209 203 211 212 200 193 195 194 192 188 185 185 190 190 186 185 180 179 181 176 168 175 178 177 179 178 177 184 187 191 196 203 209 215 220 224 233 239 244 247 253 260 259 260 262 265 268 278 283 287 284 281 277 274 274 272 273 274 273 270 269 267 267 266 264 263
107 222 201 85 102 357 178 249 7 249 255 276 292 270 289 278 284 120 184 214 218 218 222 209 223 240 237 236 235 223 209 204 206 215 211 203 200 200 199 198 195 191 192 192 192 186 184 181 176 176 169 171 176 174 175 175 174 178 180 184 190 195 201 209 219 226 229 233 236 239 244 250 250 256 261 261 262 276 284 285 281 280 278 274 272 274 276 276 275 272 269 269 269 270 269 267 264
305 1 356 180 184 197 144 59 249 256 256 276 277 278 274 254 256 135 171 201 217 227 224 198 227 233 233 235 239 240 216 193 209 214 211 205 204 203 200 201 198 197 194 192 186 177 176 175 178 177 174 171 169 169 171 171 172 171 175 180 183 190 198 207 217 223 230 237 240 243 248 255 262 259 259 263 272 284 286 285 283 282 281 278 278 279 280 278 275 273 271 271 270 269 269 270 269
101 164 208 6 319 190 162 203 263 225 273 287 279 288 269 164 200 184 199 192 205 217 198 212 220 223 222 226 228 232 219 214 215 208 208 211 211 207 202 198 194 193 188 182 178 171 180 177 172 172 164 163 165 168 168 168 170 167 165 166 178 187 195 206 214 218 229 235 241 246 253 258 260 267 265 270 276 288 290 286 283 285 285 285 283 282 278 277 275 271 272 271 271 271 272 271 272
193 205 195 163 202 355 336 335 207 215 249 241 270 285 275 36 136 148 171 179 197 191 200 205 218 224 226 222 223 229 224 219 217 215 215 213 208 204 204 199 194 187 181 173 175 179 180 172 175 172 168 167 168 168 167 168 163 167 164 172 179 183 196 204 213 222 232 240 244 248 253 259 272 266 273 284 288 295 292 285 285 283 281 283 283 280 277 274 272 272 270 271 275 274 273 272 272
174 176 190 181 156 186 193 243 113 227 207 238 230 252 274 242 60 102 102 152 169 190 195 201 210 223 220 218 228 225 231 230 228 223 216 210 203 200 193 186 179 180 184 183 179 174 177 177 178 170 167 168 167 166 169 160 160 161 167 173 180 185 193 205 212 219 232 235 243 247 251 263 265 269 281 294 293 295 289 287 286 284 281 281 279 277 277 275 275 275 274 274 275 277 276 274 274